星链-2114 (STARLINK-2114 )

导读 | 豆包AI

STARLINK-2114是美国SpaceX公司星链(Starlink)卫星互联网星座的成员,于2021年1月20日发射升空,运行于近地低轨道。星链项目旨在通过大规模低轨卫星组网,为全球尤其是偏远地区提供高速低延迟的互联网接入服务,STARLINK-2114的入轨进一步扩充了星链星座的通信覆盖容量与服务能力,支撑星座全球互联的应用目标。

基本信息
目录编号:
47393
目录名称:
STARLINK-2114
国际标识:
2021-005AW
轨道中心:
EARTH
卫星名称:
星链-2114
卫星全名:
星链-2114 (STARLINK-2114 )
卫星状态:
在轨 (已飞行1879 天)
发射日期:
2021-01-20 UTC
国别 :
美国 (US)
星等 :
--
轨道信息
数据来源 国际轨道数据
星历时间: 2026-03-14T07:35:12+0800
12小时前
查看轨道信息
半长轴: 6746.734km
偏心率: 0.0001307
轨道倾角: 53.046°
近地点辐角 170.038°
升交点赤经 322.754°
平近点角 190.066°
近地点: 367.715km
远地点: 369.479km
周期: 91.918分钟
每日圈数: 15.666154
详细信息
固有亮度:
5
最大亮度:
2.5
卫星平台:
Starlink V1.0
覆盖范围:
全球
运营商:
太空探索技术公司
运营商所在国:
美国
制造商(研发单位):
太空探索技术公司
制造商所在国:
美国
使用方式:
暂无
卫星简介
星链(Starlink)计划是由太空探索技术公司(SpaceX)提出的一个巨型低轨卫星互联网星座项目,计划在2019年至2024年间在太空搭建由约1.2万颗卫星组成的“星链”网络,其中1584颗将部署在地球上空550千米处的近地轨道,并从2020年开始工作。该卫星仍在工作。
2D轨道图
3D轨道图
轨道高度分析图
轨道倾角分析图
轨道综合分析图
查看轨道综合分析图